STARLINK-34246, 64769

Orbit data source: Space-Track

STARLINK-34246, 64769 is a payload satellite owned by SpaceX/Seattle (US) in LEO that was launched on Tue, 08 Jul 2025 UTC via an FALCON 9 launch vehicle from the Air Force Eastern Test Range (AFETR). Payload-class satellites include a variety of spacecraft equipped with specific instruments for various scientific and technological missions. These include communications satellites like Starlink; space stations such as the ISS; scientific satellites like the Hubble; Earth observation satellites from companies like Planet Labs, Umbra, and HawkEye 360; GPS; miniature CubeSats for education and research; and military/defense satellites.

Loading next visibility...
Identifier
64769, 2025-147Q
Orbit
LEO
Country
Flag of USUS
Related business
Manufacturer
SpaceX/Seattle
Mission
Operational Commercial Communications
Bus & Motor
STARLINK V2MO, Unknown motor
Mass
575 kg wet, ~530 kg dry
Launch date (UTC)
2025-07-08 (11 months ago)
Launch vehicle
FALCON 9
Launch site
Air Force Eastern Test Range (AFETR)
Object type
Payload
Rocket body
Debris
Shape & HBR
Box + 2 Pan, 17.7 m
Radar Cross Section
36.964 m², Large (>1 m²)

Expand to show TLE details & history
Last TLE update: 16 hours ago

TLE from 16 hours ago
0 STARLINK-34246
1 64769U 25147Q   26171.17097020  .00021377  00000-0  64156-3 0  9999
2 64769  53.1584 125.2098 0002280  88.8822 271.2441 15.34421221 54460
Epoch: 2026-06-20T04:06Z
TLE epoch observation values (Epoch: 2026-06-20T04:06:11.825Z)
Latitude
-0.00007°
Longitude
155.27105°
Altitude
463.508 km
Speed
7.636 km/s
True Right ascension
08h 20m 50s
True Declination
0° 00' 00"
Sunlit
Object was in daylight at epoch
Visualization orbit readout
Latitude
Unknown
Longitude
Unknown
Altitude
Unknown
Speed
Unknown
Apparent Right ascension
Unknown
Apparent Declination
Unknown
Sunlit
N/A
Visualization observer readout
Local Sidereal Time
07:20:38
Azimuth
Unknown
Elevation
Unknown
Doppler factor
Unknown
Orbital elements
Apogee altitude
464.457 km
Perigee altitude
461.338 km
Semi-major axis
6,841.034 km
Eccentricity
0.00023
Inclination
53.1584°
RAAN
125.2098°
Arg. of periapsis
88.8822°
True anomaly
271.21798°
Mean anomaly
271.2441°
Eccentric anomaly
271.23104°
Mean motion
3.83584 °/min
Orbital period
93.85 mins
BSTAR
0.00064156
Loading maneuver chart data...
Computing Atmospheric mass density...
Loading historical data...
Loading historical data...
Loading historical data...
Loading historical data...
Loading historical data...
Loading historical data...
Loading historical data...

Documentation

Showing up to 5 results
|